User: anonymous   Login
Location: Unspecified
(0.0000°N, 0.0000°E)
Time: 09:31:22
(UTC+00:00)
Language:

DMSP F15 (USA 147) - Orbit

View from above orbital plane
View from above orbital plane
View from above satellite
View from above satellite

Ground track
Ground track

The orbit data is extracted from the following two-line orbital elements,

1 25991U 99067A   20219.93875574 -.00000103 +00000-0 -28752-4 0  9993
2 25991 098.9733 191.7017 0009355 323.2964 055.5050 14.16476920067579
Epoch (UTC): 06 August 2020 22:31:48
Eccentricity: 0.0009355
inclination: 98.9733°
perigee height: 830 km
apogee height: 844 km
right ascension of ascending node: 191.7017°
argument of perigee: 323.2964°
revolutions per day: 14.16476920
mean anomaly at epoch: 55.5050°
orbit number at epoch: 6757

The dashed part of the orbit path shows where the satellite is in the earth's shadow,  

DLR